| time (UTC) | temp F | wind direction | speed MPH | gust MPH | rain 1hr in | rain 24hr in | rain mn in | humidity % | barometer mb |
| 20260905085502 | 77 | 23 | 0.0 | 0.0 | 0.00 | 0.00 | 0.00 | 65 | 1018.1 |
| 20260905085003 | 77 | 23 | 0.0 | 0.0 | 0.00 | 0.00 | 0.00 | 63 | 1018.2 |
| 20260905084503 | 77 | 23 | 0.0 | 0.0 | 0.00 | 0.00 | 0.00 | 64 | 1018.2 |
| 20260905083503 | 76 | 23 | 0.0 | 0.0 | 0.00 | 0.00 | 0.00 | 62 | 1018.1 |
| 20260905083003 | 76 | 23 | 0.0 | 0.0 | 0.00 | 0.00 | 0.00 | 61 | 1018.2 |
| 20260905082503 | 76 | 23 | 0.0 | 0.0 | 0.00 | 0.00 | 0.00 | 63 | 1018.2 |
| 20260905082003 | 76 | 23 | 0.0 | 0.0 | 0.00 | 0.00 | 0.00 | 61 | 1018.2 |
| 20260905081504 | 74 | 23 | 0.0 | 0.0 | 0.00 | 0.00 | 0.00 | 62 | 1018.3 |
| 20260905081004 | 74 | 23 | 0.0 | 0.0 | 0.00 | 0.00 | 0.00 | 67 | 1018.3 |
| 20260905080503 | 74 | 23 | 0.0 | 0.0 | 0.00 | 0.00 | 0.00 | 67 | 1018.2 |
| 20260905080004 | 73 | 23 | 0.0 | 0.0 | 0.00 | 0.00 | 0.00 | 67 | 1018.3 |
| 20260905075503 | 73 | 23 | 0.0 | 0.0 | 0.00 | 0.00 | 0.00 | 69 | 1018.3 |
| 20260905075003 | 72 | 23 | 0.0 | 3.0 | 0.00 | 0.00 | 0.00 | 69 | 1018.3 |
| 20260905074503 | 72 | 21 | 0.0 | 3.0 | 0.00 | 0.00 | 0.00 | 70 | 1018.2 |
| 20260905074003 | 71 | 14 | 0.0 | 3.0 | 0.00 | 0.00 | 0.00 | 71 | 1018.2 |
| 20260905073503 | 71 | 13 | 0.0 | 2.0 | 0.00 | 0.00 | 0.00 | 72 | 1018.3 |
| 20260905073005 | 70 | 13 | 0.0 | 1.0 | 0.00 | 0.00 | 0.00 | 73 | 1018.2 |
| 20260905071503 | 69 | 13 | 0.0 | 0.0 | 0.00 | 0.00 | 0.00 | 76 | 1018.3 |
| 20260905071003 | 68 | 13 | 0.0 | 0.0 | 0.00 | 0.00 | 0.00 | 77 | 1018.2 |
| 20260905070503 | 68 | 13 | 0.0 | 0.0 | 0.00 | 0.00 | 0.00 | 77 | 1018.2 |
| 20260905065503 | 67 | 13 | 0.0 | 0.0 | 0.00 | 0.00 | 0.00 | 78 | 1018.1 |
| 20260905065004 | 67 | 13 | 0.0 | 0.0 | 0.00 | 0.00 | 0.00 | 78 | 1018.2 |
| 20260905064503 | 67 | 13 | 0.0 | 0.0 | 0.00 | 0.00 | 0.00 | 78 | 1018.1 |
| 20260905064003 | 67 | 13 | 0.0 | 0.0 | 0.00 | 0.00 | 0.00 | 78 | 1018.0 |
| 20260905063502 | 67 | 13 | 1.0 | 3.0 | 0.00 | 0.00 | 0.00 | 78 | 1018.0 |
| 20260905062503 | 68 | 13 | 0.0 | 0.0 | 0.00 | 0.00 | 0.00 | 78 | 1018.0 |
| 20260905062004 | 68 | 13 | 0.0 | 2.0 | 0.00 | 0.00 | 0.00 | 78 | 1018.0 |
| 20260905061503 | 68 | 13 | 0.0 | 0.0 | 0.00 | 0.00 | 0.00 | 78 | 1018.0 |
| 20260905061003 | 68 | 13 | 0.0 | 2.0 | 0.00 | 0.00 | 0.00 | 78 | 1017.9 |
| 20260905060503 | 68 | 13 | 2.0 | 3.0 | 0.00 | 0.00 | 0.00 | 78 | 1018.0 |
| 20260905060004 | 68 | 13 | 1.0 | 3.0 | 0.00 | 0.00 | 0.00 | 77 | 1018.0 |
| 20260905055502 | 68 | 13 | 5.0 | 6.0 | 0.00 | 0.00 | 0.00 | 77 | 1017.9 |
| 20260905055004 | 68 | 274 | 1.0 | 5.0 | 0.00 | 0.00 | 0.00 | 77 | 1018.0 |
| 20260905054503 | 69 | 274 | 1.0 | 3.0 | 0.00 | 0.00 | 0.00 | 77 | 1017.9 |
| 20260905054003 | 69 | 274 | 0.0 | 0.0 | 0.00 | 0.00 | 0.00 | 77 | 1017.9 |
| 20260905053002 | 69 | 274 | 0.0 | 0.0 | 0.00 | 0.00 | 0.00 | 76 | 1018.0 |
| 20260905052503 | 69 | 274 | 0.0 | 0.0 | 0.00 | 0.00 | 0.00 | 76 | 1018.1 |
| 20260905052003 | 69 | 274 | 0.0 | 0.0 | 0.00 | 0.00 | 0.00 | 76 | 1018.2 |
| 20260905051504 | 69 | 274 | 0.0 | 0.0 | 0.00 | 0.00 | 0.00 | 76 | 1018.2 |
| 20260905051004 | 69 | 274 | 0.0 | 0.0 | 0.00 | 0.00 | 0.00 | 75 | 1018.3 |
| 20260905050503 | 69 | 274 | 0.0 | 0.0 | 0.00 | 0.00 | 0.00 | 75 | 1018.3 |
| 20260905050004 | 69 | 274 | 0.0 | 0.0 | 0.00 | 0.00 | 0.00 | 75 | 1018.4 |
| 20260905045504 | 70 | 274 | 0.0 | 0.0 | 0.00 | 0.00 | 0.00 | 75 | 1018.4 |
| 20260905045003 | 70 | 274 | 0.0 | 0.0 | 0.00 | 0.00 | 0.00 | 75 | 1018.5 |
| 20260905044503 | 70 | 274 | 0.0 | 1.0 | 0.00 | 0.00 | 0.00 | 74 | 1018.5 |
| 20260905044003 | 70 | 274 | 0.0 | 0.0 | 0.00 | 0.00 | 0.00 | 74 | 1018.6 |
| 20260905043504 | 70 | 274 | 0.0 | 0.0 | 0.00 | 0.00 | 0.00 | 74 | 1018.7 |
| 20260905043004 | 70 | 274 | 1.0 | 3.0 | 0.00 | 0.00 | 0.00 | 73 | 1018.7 |
| 20260905042503 | 70 | 274 | 3.0 | 5.0 | 0.00 | 0.00 | 0.00 | 73 | 1018.8 |
| 20260905042004 | 71 | 274 | 3.0 | 5.0 | 0.00 | 0.00 | 0.00 | 73 | 1018.8 |
| 20260905041003 | 71 | 274 | 2.0 | 3.0 | 0.00 | 0.00 | 0.00 | 72 | 1018.9 |
| 20260905040503 | 71 | 274 | 0.0 | 0.0 | 0.00 | 0.00 | 0.00 | 72 | 1018.9 |
| 20260905040004 | 71 | 274 | 0.0 | 0.0 | 0.00 | 0.00 | 0.00 | 72 | 1018.9 |
| 20260905035503 | 71 | 274 | 0.0 | 0.0 | 0.00 | 0.00 | 0.00 | 72 | 1018.9 |
| 20260905035003 | 71 | 274 | 0.0 | 0.0 | 0.00 | 0.00 | 0.00 | 72 | 1019.0 |
| 20260905034503 | 71 | 274 | 0.0 | 0.0 | 0.00 | 0.00 | 0.00 | 72 | 1019.0 |
| 20260905034003 | 71 | 274 | 0.0 | 0.0 | 0.00 | 0.00 | 0.00 | 72 | 1019.1 |
| 20260905033503 | 71 | 274 | 0.0 | 1.0 | 0.00 | 0.00 | 0.00 | 72 | 1019.1 |
| 20260905033004 | 71 | 274 | 2.0 | 5.0 | 0.00 | 0.00 | 0.00 | 73 | 1019.0 |
| 20260905032503 | 71 | 274 | 1.0 | 5.0 | 0.00 | 0.00 | 0.00 | 72 | 1019.1 |
| 20260905032003 | 71 | 274 | 0.0 | 2.0 | 0.00 | 0.00 | 0.00 | 72 | 1019.2 |
| 20260905031503 | 71 | 274 | 0.0 | 3.0 | 0.00 | 0.00 | 0.00 | 72 | 1019.2 |
| 20260905031003 | 71 | 274 | 1.0 | 3.0 | 0.00 | 0.00 | 0.00 | 72 | 1019.2 |
| 20260905030503 | 71 | 274 | 0.0 | 2.0 | 0.00 | 0.00 | 0.00 | 73 | 1019.2 |
| 20260905030004 | 71 | 274 | 0.0 | 0.0 | 0.00 | 0.00 | 0.00 | 73 | 1019.4 |
| 20260905025504 | 72 | 274 | 0.0 | 0.0 | 0.00 | 0.00 | 0.00 | 73 | 1019.4 |
| 20260905025003 | 72 | 274 | 0.0 | 2.0 | 0.00 | 0.00 | 0.00 | 74 | 1019.4 |
| 20260905024502 | 72 | 274 | 3.0 | 6.0 | 0.00 | 0.00 | 0.00 | 73 | 1019.4 |
| 20260905023504 | 72 | 274 | 0.0 | 0.0 | 0.00 | 0.00 | 0.00 | 72 | 1019.2 |
| 20260905023004 | 72 | 274 | 2.0 | 6.0 | 0.00 | 0.00 | 0.00 | 73 | 1019.2 |
| 20260905022004 | 72 | 275 | 0.0 | 5.0 | 0.00 | 0.00 | 0.00 | 70 | 1019.2 |
| 20260905021503 | 72 | 275 | 0.0 | 3.0 | 0.00 | 0.00 | 0.00 | 71 | 1019.2 |
| 20260905021003 | 72 | 275 | 0.0 | 3.0 | 0.00 | 0.00 | 0.00 | 71 | 1019.2 |
| 20260905020502 | 72 | 275 | 0.0 | 2.0 | 0.00 | 0.00 | 0.00 | 71 | 1019.3 |
| 20260905020004 | 72 | 275 | 0.0 | 0.0 | 0.00 | 0.00 | 0.00 | 70 | 1019.4 |
| 20260905015503 | 72 | 275 | 0.0 | 0.0 | 0.00 | 0.00 | 0.00 | 71 | 1019.4 |
| 20260905015004 | 72 | 275 | 1.0 | 2.0 | 0.00 | 0.00 | 0.00 | 71 | 1019.4 |
| 20260905014002 | 72 | 275 | 0.0 | 0.0 | 0.00 | 0.00 | 0.00 | 73 | 1019.5 |
| 20260905013503 | 72 | 275 | 0.0 | 1.0 | 0.00 | 0.00 | 0.00 | 73 | 1019.5 |
| 20260905013004 | 73 | 275 | 0.0 | 2.0 | 0.00 | 0.00 | 0.00 | 73 | 1019.5 |
| 20260905012503 | 73 | 275 | 2.0 | 3.0 | 0.00 | 0.00 | 0.00 | 74 | 1019.5 |
| 20260905012004 | 73 | 275 | 2.0 | 6.0 | 0.00 | 0.00 | 0.00 | 73 | 1019.5 |
| 20260905011503 | 73 | 283 | 3.0 | 5.0 | 0.00 | 0.00 | 0.00 | 73 | 1019.5 |
| 20260905011002 | 73 | 284 | 0.0 | 2.0 | 0.00 | 0.00 | 0.00 | 73 | 1019.5 |
| 20260905010502 | 73 | 284 | 0.0 | 5.0 | 0.00 | 0.00 | 0.00 | 73 | 1019.4 |
| 20260905010004 | 73 | 282 | 1.0 | 3.0 | 0.00 | 0.00 | 0.00 | 73 | 1019.4 |
| 20260905005504 | 73 | 282 | 0.0 | 2.0 | 0.00 | 0.00 | 0.00 | 73 | 1019.5 |
| 20260905005004 | 73 | 282 | 1.0 | 2.0 | 0.00 | 0.00 | 0.00 | 74 | 1019.5 |
| 20260905004503 | 73 | 282 | 0.0 | 0.0 | 0.00 | 0.00 | 0.00 | 73 | 1019.7 |
| 20260905004001 | 74 | 282 | 0.0 | 0.0 | 0.00 | 0.00 | 0.00 | 72 | 1019.9 |
| 20260905003504 | 74 | 282 | 0.0 | 0.0 | 0.00 | 0.00 | 0.00 | 72 | 1019.9 |
| 20260905003005 | 74 | 282 | 0.0 | 0.0 | 0.00 | 0.00 | 0.00 | 72 | 1019.9 |
| 20260905002503 | 74 | 282 | 1.0 | 3.0 | 0.00 | 0.00 | 0.00 | 72 | 1019.9 |
| 20260905000503 | 74 | 39 | 0.0 | 7.0 | 0.00 | 0.00 | 0.00 | 73 | 1019.8 |
| 20260905000004 | 74 | 35 | 6.0 | 8.0 | 0.00 | 0.00 | 0.00 | 73 | 1019.5 |
| 20260904235503 | 74 | 350 | 1.0 | 5.0 | 0.00 | 0.00 | 0.00 | 73 | 1019.8 |
| 20260904234004 | 74 | 238 | 4.0 | 7.0 | 0.00 | 0.00 | 0.00 | 72 | 1020.1 |
| 20260904233503 | 74 | 238 | 1.0 | 6.0 | 0.00 | 0.00 | 0.00 | 72 | 1020.0 |
| 20260904233005 | 74 | 238 | 2.0 | 5.0 | 0.00 | 0.00 | 0.00 | 72 | 1019.7 |
| 20260904232003 | 74 | 237 | 0.0 | 2.0 | 0.00 | 0.00 | 0.00 | 72 | 1019.6 |
| 20260904231504 | 75 | 237 | 0.0 | 2.0 | 0.00 | 0.00 | 0.00 | 72 | 1019.6 |
| 20260904231003 | 75 | 237 | 0.0 | 0.0 | 0.00 | 0.00 | 0.00 | 72 | 1019.8 |
| 20260904225504 | 75 | 237 | 0.0 | 0.0 | 0.00 | 0.00 | 0.00 | 72 | 1020.3 |
| 20260904225004 | 75 | 237 | 0.0 | 1.0 | 0.00 | 0.00 | 0.00 | 71 | 1019.9 |
| 20260904224004 | 76 | 237 | 5.0 | 8.0 | 0.00 | 0.00 | 0.00 | 70 | 1020.2 |
| 20260904223503 | 76 | 228 | 6.0 | 8.0 | 0.00 | 0.00 | 0.00 | 70 | 1020.2 |
| 20260904222504 | 76 | 233 | 5.0 | 9.0 | 0.00 | 0.00 | 0.00 | 70 | 1020.3 |
| 20260904222002 | 75 | 240 | 7.0 | 9.0 | 0.00 | 0.00 | 0.00 | 69 | 1020.3 |
| 20260904221505 | 75 | 205 | 0.0 | 3.0 | 0.00 | 0.00 | 0.00 | 70 | 1020.3 |
| 20260904221003 | 75 | 205 | 2.0 | 6.0 | 0.00 | 0.00 | 0.00 | 72 | 1020.4 |
| 20260904220503 | 75 | 209 | 7.0 | 12.0 | 0.00 | 0.00 | 0.00 | 72 | 1020.5 |
| 20260904220004 | 75 | 65 | 0.0 | 7.0 | 0.00 | 0.00 | 0.00 | 71 | 1020.5 |
| 20260904215502 | 75 | 64 | 3.0 | 7.0 | 0.00 | 0.00 | 0.00 | 72 | 1020.3 |
| 20260904215004 | 75 | 48 | 1.0 | 8.0 | 0.00 | 0.00 | 0.00 | 73 | 1020.3 |
| 20260904214503 | 74 | 34 | 9.0 | 13.0 | 0.00 | 0.00 | 0.00 | 75 | 1020.5 |
| 20260904213504 | 75 | 61 | 2.0 | 6.0 | 0.00 | 0.00 | 0.00 | 75 | 1021.0 |
| 20260904213004 | 76 | 48 | 5.0 | 8.0 | 0.00 | 0.00 | 0.00 | 75 | 1020.9 |
| 20260904212503 | 76 | 34 | 5.0 | 8.0 | 0.00 | 0.00 | 0.00 | 72 | 1021.2 |
| 20260904212003 | 76 | 221 | 0.0 | 0.0 | 0.00 | 0.00 | 0.00 | 70 | 1021.8 |
| 20260904211502 | 76 | 221 | 0.0 | 0.0 | 0.00 | 0.00 | 0.00 | 71 | 1021.9 |
| 20260904210505 | 77 | 221 | 0.0 | 0.0 | 0.00 | 0.00 | 0.00 | 71 | 1021.7 |
| 20260904210004 | 77 | 221 | 0.0 | 0.0 | 0.00 | 0.00 | 0.00 | 71 | 1021.6 |
| 20260904205504 | 77 | 221 | 0.0 | 0.0 | 0.00 | 0.00 | 0.00 | 71 | 1021.5 |
| 20260904205003 | 77 | 221 | 0.0 | 0.0 | 0.00 | 0.00 | 0.00 | 70 | 1021.4 |
| 20260904204504 | 77 | 221 | 0.0 | 0.0 | 0.00 | 0.00 | 0.00 | 70 | 1021.3 |
| 20260904202004 | 78 | 239 | 5.0 | 7.0 | 0.00 | 0.00 | 0.00 | 69 | 1021.0 |
| 20260904201503 | 78 | 217 | 6.0 | 8.0 | 0.00 | 0.00 | 0.00 | 69 | 1020.8 |
| 20260904200502 | 79 | 222 | 5.0 | 8.0 | 0.00 | 0.00 | 0.00 | 69 | 1020.3 |
| 20260904200004 | 79 | 234 | 3.0 | 9.0 | 0.00 | 0.00 | 0.00 | 69 | 1020.3 |
| 20260904195503 | 79 | 40 | 1.0 | 2.0 | 0.00 | 0.00 | 0.00 | 68 | 1020.1 |
| 20260904195003 | 79 | 40 | 0.0 | 1.0 | 0.00 | 0.00 | 0.00 | 67 | 1020.0 |
| 20260904194504 | 79 | 40 | 0.0 | 2.0 | 0.00 | 0.00 | 0.00 | 67 | 1020.1 |
| 20260904194004 | 80 | 40 | 2.0 | 5.0 | 0.00 | 0.00 | 0.00 | 66 | 1020.2 |
| 20260904193503 | 80 | 38 | 5.0 | 8.0 | 0.00 | 0.00 | 0.00 | 65 | 1020.3 |
| 20260904193005 | 81 | 237 | 0.0 | 5.0 | 0.00 | 0.00 | 0.00 | 65 | 1020.1 |
| 20260904192504 | 81 | 237 | 0.0 | 0.0 | 0.00 | 0.00 | 0.00 | 64 | 1020.1 |
| 20260904192003 | 81 | 237 | 0.0 | 0.0 | 0.00 | 0.00 | 0.00 | 64 | 1020.0 |
| 20260904191504 | 82 | 237 | 0.0 | 0.0 | 0.00 | 0.00 | 0.00 | 64 | 1020.0 |
| 20260904191003 | 82 | 237 | 0.0 | 0.0 | 0.00 | 0.00 | 0.00 | 64 | 1020.1 |
| 20260904190504 | 82 | 237 | 0.0 | 2.0 | 0.00 | 0.00 | 0.00 | 63 | 1020.0 |
| 20260904190003 | 83 | 237 | 2.0 | 5.0 | 0.00 | 0.00 | 0.00 | 62 | 1020.1 |
| 20260904185502 | 83 | 237 | 2.0 | 5.0 | 0.00 | 0.00 | 0.00 | 62 | 1020.0 |
| 20260904185004 | 83 | 237 | 2.0 | 6.0 | 0.00 | 0.00 | 0.00 | 62 | 1020.1 |
| 20260904184503 | 83 | 237 | 4.0 | 7.0 | 0.00 | 0.00 | 0.00 | 62 | 1020.2 |
| 20260904184003 | 83 | 234 | 5.0 | 7.0 | 0.00 | 0.00 | 0.00 | 61 | 1020.0 |
| 20260904183503 | 83 | 234 | 6.0 | 9.0 | 0.00 | 0.00 | 0.00 | 61 | 1020.0 |
| 20260904183004 | 84 | 225 | 3.0 | 6.0 | 0.00 | 0.00 | 0.00 | 61 | 1020.1 |
| 20260904182502 | 84 | 225 | 2.0 | 7.0 | 0.00 | 0.00 | 0.00 | 60 | 1020.1 |
| 20260904182003 | 84 | 225 | 3.0 | 7.0 | 0.00 | 0.00 | 0.00 | 60 | 1020.0 |
| 20260904181502 | 84 | 228 | 5.0 | 9.0 | 0.00 | 0.00 | 0.00 | 60 | 1020.1 |
| 20260904181003 | 84 | 223 | 5.0 | 7.0 | 0.00 | 0.00 | 0.00 | 60 | 1020.2 |
| 20260904180503 | 84 | 217 | 5.0 | 8.0 | 0.00 | 0.00 | 0.00 | 61 | 1020.1 |
| 20260904174503 | 84 | 227 | 6.0 | 8.0 | 0.00 | 0.00 | 0.00 | 61 | 1019.9 |
| 20260904174003 | 84 | 240 | 5.0 | 8.0 | 0.00 | 0.00 | 0.00 | 61 | 1019.8 |
| 20260904173503 | 84 | 220 | 6.0 | 10.0 | 0.00 | 0.00 | 0.00 | 59 | 1019.8 |
| 20260904173003 | 84 | 217 | 7.0 | 12.0 | 0.00 | 0.00 | 0.00 | 60 | 1019.7 |
| 20260904172504 | 84 | 207 | 7.0 | 10.0 | 0.00 | 0.00 | 0.00 | 61 | 1019.6 |
| 20260904172003 | 84 | 214 | 4.0 | 9.0 | 0.00 | 0.00 | 0.00 | 60 | 1019.5 |
| 20260904171503 | 85 | 207 | 6.0 | 12.0 | 0.00 | 0.00 | 0.00 | 60 | 1019.5 |
| 20260904171004 | 85 | 215 | 5.0 | 12.0 | 0.00 | 0.00 | 0.00 | 59 | 1019.5 |
| 20260904165503 | 85 | 237 | 5.0 | 9.0 | 0.00 | 0.00 | 0.00 | 61 | 1019.6 |
| 20260904165004 | 85 | 260 | 6.0 | 9.0 | 0.00 | 0.00 | 0.00 | 60 | 1019.6 |
| 20260904164504 | 85 | 252 | 5.0 | 12.0 | 0.00 | 0.00 | 0.00 | 61 | 1019.5 |
| 20260904164004 | 86 | 231 | 6.0 | 12.0 | 0.00 | 0.00 | 0.00 | 60 | 1019.4 |
| 20260904163504 | 86 | 230 | 9.0 | 13.0 | 0.00 | 0.00 | 0.00 | 58 | 1019.2 |
| 20260904163004 | 87 | 249 | 10.0 | 15.0 | 0.00 | 0.00 | 0.00 | 57 | 1019.2 |
| 20260904162501 | 86 | 244 | 10.0 | 13.0 | 0.00 | 0.00 | 0.00 | 58 | 1019.1 |
| 20260904162003 | 86 | 238 | 7.0 | 12.0 | 0.00 | 0.00 | 0.00 | 56 | 1019.0 |
| 20260904161504 | 87 | 217 | 7.0 | 13.0 | 0.00 | 0.00 | 0.00 | 55 | 1019.0 |
| 20260904161003 | 88 | 228 | 7.0 | 13.0 | 0.00 | 0.00 | 0.00 | 53 | 1018.8 |
| 20260904160504 | 90 | 244 | 10.0 | 15.0 | 0.00 | 0.00 | 0.00 | 50 | 1018.8 |
| 20260904160004 | 91 | 240 | 10.0 | 18.0 | 0.00 | 0.00 | 0.00 | 47 | 1018.7 |
| 20260904155503 | 92 | 227 | 6.0 | 10.0 | 0.00 | 0.00 | 0.00 | 44 | 1018.7 |
| 20260904155003 | 91 | 220 | 5.0 | 8.0 | 0.00 | 0.00 | 0.00 | 43 | 1018.6 |
| 20260904154504 | 91 | 227 | 6.0 | 8.0 | 0.00 | 0.00 | 0.00 | 41 | 1018.5 |
| 20260904154003 | 90 | 230 | 6.0 | 8.0 | 0.00 | 0.00 | 0.00 | 41 | 1018.4 |
| 20260904153503 | 90 | 201 | 3.0 | 5.0 | 0.00 | 0.00 | 0.00 | 39 | 1018.3 |
| 20260904153003 | 91 | 201 | 0.0 | 0.0 | 0.00 | 0.00 | 0.00 | 40 | 1018.2 |
| 20260904152503 | 91 | 201 | 0.0 | 2.0 | 0.00 | 0.00 | 0.00 | 35 | 1018.0 |
| 20260904152004 | 91 | 201 | 0.0 | 1.0 | 0.00 | 0.00 | 0.00 | 42 | 1017.9 |
| 20260904151503 | 91 | 201 | 0.0 | 1.0 | 0.00 | 0.00 | 0.00 | 40 | 1017.9 |
| 20260904151003 | 91 | 201 | 0.0 | 2.0 | 0.00 | 0.00 | 0.00 | 40 | 1018.1 |
| 20260904150503 | 91 | 201 | 0.0 | 1.0 | 0.00 | 0.00 | 0.00 | 41 | 1018.2 |
| 20260904150004 | 92 | 201 | 0.0 | 2.0 | 0.00 | 0.00 | 0.00 | 37 | 1018.4 |
| 20260904144004 | 92 | 201 | 1.0 | 5.0 | 0.00 | 0.00 | 0.00 | 41 | 1018.9 |
| 20260904143502 | 91 | 201 | 0.0 | 3.0 | 0.00 | 0.00 | 0.00 | 41 | 1019.0 |
| 20260904142004 | 91 | 208 | 2.0 | 5.0 | 0.00 | 0.00 | 0.00 | 44 | 1019.4 |
| 20260904141504 | 91 | 242 | 1.0 | 3.0 | 0.00 | 0.00 | 0.00 | 43 | 1019.6 |
| 20260904140503 | 91 | 235 | 2.0 | 7.0 | 0.00 | 0.00 | 0.00 | 43 | 1019.7 |
| 20260904140005 | 91 | 248 | 2.0 | 6.0 | 0.00 | 0.00 | 0.00 | 45 | 1019.5 |
| 20260904135504 | 91 | 220 | 1.0 | 6.0 | 0.00 | 0.00 | 0.00 | 45 | 1019.5 |
| 20260904135004 | 89 | 220 | 2.0 | 8.0 | 0.00 | 0.00 | 0.00 | 45 | 1019.6 |
| 20260904134503 | 89 | 238 | 3.0 | 8.0 | 0.00 | 0.00 | 0.00 | 45 | 1019.8 |
| 20260904133502 | 90 | 229 | 6.0 | 9.0 | 0.00 | 0.00 | 0.00 | 46 | 1019.9 |
| 20260904133005 | 90 | 246 | 5.0 | 8.0 | 0.00 | 0.00 | 0.00 | 46 | 1020.1 |
| 20260904132502 | 90 | 288 | 5.0 | 10.0 | 0.00 | 0.00 | 0.00 | 47 | 1020.2 |
| 20260904131504 | 90 | 242 | 5.0 | 10.0 | 0.00 | 0.00 | 0.00 | 44 | 1020.3 |
| 20260904130504 | 90 | 285 | 2.0 | 5.0 | 0.00 | 0.00 | 0.00 | 46 | 1020.3 |
| 20260904130003 | 89 | 285 | 3.0 | 6.0 | 0.00 | 0.00 | 0.00 | 45 | 1020.2 |
| 20260904125503 | 88 | 284 | 2.0 | 5.0 | 0.00 | 0.00 | 0.00 | 46 | 1020.3 |
| 20260904125004 | 88 | 284 | 2.0 | 5.0 | 0.00 | 0.00 | 0.00 | 44 | 1020.4 |
| 20260904123005 | 90 | 272 | 6.0 | 9.0 | 0.00 | 0.00 | 0.00 | 44 | 1020.5 |
| 20260904122003 | 89 | 248 | 6.0 | 12.0 | 0.00 | 0.00 | 0.00 | 45 | 1020.6 |
| 20260904121504 | 89 | 264 | 7.0 | 12.0 | 0.00 | 0.00 | 0.00 | 46 | 1020.7 |
| 20260904121004 | 88 | 258 | 6.0 | 13.0 | 0.00 | 0.00 | 0.00 | 45 | 1020.6 |
| 20260904120504 | 90 | 246 | 5.0 | 12.0 | 0.00 | 0.00 | 0.00 | 44 | 1020.7 |
| 20260904120005 | 89 | 245 | 6.0 | 12.0 | 0.00 | 0.00 | 0.00 | 46 | 1020.7 |
| 20260904115502 | 89 | 243 | 7.0 | 14.0 | 0.00 | 0.00 | 0.00 | 45 | 1020.7 |
| 20260904115004 | 89 | 247 | 9.0 | 16.0 | 0.00 | 0.00 | 0.00 | 44 | 1020.7 |
| 20260904114504 | 89 | 248 | 8.0 | 16.0 | 0.00 | 0.00 | 0.00 | 45 | 1020.8 |
| 20260904114004 | 88 | 237 | 8.0 | 18.0 | 0.00 | 0.00 | 0.00 | 46 | 1020.8 |
| 20260904113504 | 87 | 248 | 7.0 | 14.0 | 0.00 | 0.00 | 0.00 | 46 | 1020.8 |
| 20260904113005 | 86 | 256 | 7.0 | 15.0 | 0.00 | 0.00 | 0.00 | 46 | 1020.8 |
| 20260904112504 | 87 | 266 | 7.0 | 15.0 | 0.00 | 0.00 | 0.00 | 44 | 1020.8 |
| 20260904112004 | 88 | 252 | 6.0 | 13.0 | 0.00 | 0.00 | 0.00 | 46 | 1021.0 |
| 20260904111502 | 87 | 227 | 5.0 | 10.0 | 0.00 | 0.00 | 0.00 | 48 | 1021.0 |
| 20260904111002 | 86 | 217 | 4.0 | 8.0 | 0.00 | 0.00 | 0.00 | 54 | 1020.9 |
| 20260904110504 | 84 | 34 | 0.0 | 2.0 | 0.00 | 0.00 | 0.00 | 52 | 1020.8 |
| 20260904110004 | 85 | 34 | 0.0 | 2.0 | 0.00 | 0.00 | 0.00 | 51 | 1020.7 |
| 20260904105504 | 83 | 34 | 0.0 | 2.0 | 0.00 | 0.00 | 0.00 | 52 | 1020.6 |
| 20260904105002 | 83 | 34 | 0.0 | 2.0 | 0.00 | 0.00 | 0.00 | 53 | 1020.6 |
| 20260904104504 | 83 | 34 | 0.0 | 2.0 | 0.00 | 0.00 | 0.00 | 53 | 1020.5 |
| 20260904104003 | 82 | 34 | 0.0 | 2.0 | 0.00 | 0.00 | 0.00 | 52 | 1020.5 |
| 20260904103504 | 81 | 34 | 0.0 | 2.0 | 0.00 | 0.00 | 0.00 | 54 | 1020.4 |
| 20260904103005 | 81 | 34 | 0.0 | 1.0 | 0.00 | 0.00 | 0.00 | 50 | 1020.4 |
| 20260904102504 | 80 | 34 | 0.0 | 0.0 | 0.00 | 0.00 | 0.00 | 57 | 1020.4 |
| 20260904102003 | 78 | 34 | 2.0 | 6.0 | 0.00 | 0.00 | 0.00 | 62 | 1020.4 |
| 20260904101503 | 77 | 34 | 3.0 | 5.0 | 0.00 | 0.00 | 0.00 | 66 | 1020.3 |
| 20260904101004 | 76 | 37 | 0.0 | 3.0 | 0.00 | 0.00 | 0.00 | 67 | 1020.2 |
| 20260904100504 | 75 | 37 | 0.0 | 1.0 | 0.00 | 0.00 | 0.00 | 67 | 1020.3 |
| 20260904100004 | 74 | 37 | 0.0 | 2.0 | 0.00 | 0.00 | 0.00 | 66 | 1020.2 |
| 20260904095504 | 74 | 37 | 0.0 | 3.0 | 0.00 | 0.00 | 0.00 | 65 | 1020.3 |
| 20260904095004 | 73 | 37 | 3.0 | 6.0 | 0.00 | 0.00 | 0.00 | 65 | 1020.4 |
| 20260904094004 | 72 | 36 | 1.0 | 3.0 | 0.00 | 0.00 | 0.00 | 67 | 1020.6 |
| 20260904093504 | 72 | 36 | 0.0 | 1.0 | 0.00 | 0.00 | 0.00 | 68 | 1020.6 |
| 20260904093006 | 72 | 36 | 0.0 | 2.0 | 0.00 | 0.00 | 0.00 | 66 | 1020.7 |
| 20260904092504 | 72 | 36 | 0.0 | 0.0 | 0.00 | 0.00 | 0.00 | 67 | 1020.6 |
| 20260904092004 | 72 | 36 | 0.0 | 0.0 | 0.00 | 0.00 | 0.00 | 67 | 1020.5 |
| 20260904091504 | 72 | 36 | 0.0 | 0.0 | 0.00 | 0.00 | 0.00 | 66 | 1020.4 |
| 20260904091002 | 71 | 36 | 0.0 | 0.0 | 0.00 | 0.00 | 0.00 | 68 | 1020.4 |
| 20260904090504 | 71 | 36 | 0.0 | 0.0 | 0.00 | 0.00 | 0.00 | 69 | 1020.4 |
| 20260904090003 | 70 | 36 | 0.0 | 0.0 | 0.00 | 0.00 | 0.00 | 68 | 1020.4 |